Location: Overspoor
(51.4747°N, 5.6641°E)
Time: 00:26:33
(UTC+02:00)

KKS-1 - Pass Details

Date: 27 June 2022
Orbit: 634 x 649 km, 98.2° (Epoch: 15 August)

Event Time Altitude Azimuth Distance (km) Brightness Sun altitude
Rises 00:55:57 0° 6° (N) 2,982 ? -14.6°
Reaches altitude 10° 00:58:26 10° 355° (N) 2,066 ? -14.6°
Maximum altitude 01:02:11 27° 298° (WNW) 1,262 ? -14.7°
Drops below altitude 10° 01:05:55 10° 241° (WSW) 2,050 ? -14.8°
Enters shadow 01:07:32 - 233° (SW) 2,633 ? -14.8°
